Location: Unspecified
(0.0000°N, 0.0000°E)
Time: 17:59:05
(UTC+00:00)

STARLINK 1062 - Pass Details

Date: 16 January 2020
Orbit: 548 x 551 km, 53.0° (Epoch: 17 January)

Event Time Altitude Azimuth Distance (km) Brightness Sun altitude
Rises 19:10:09 0° 316° (NW) 2,700 7.5 -14.1°
Reaches altitude 10° 19:12:26 10° 310° (NW) 1,811 6.6 -14.6°
Maximum altitude 19:16:23 46° 236° (SW) 737 4.7 -15.5°
Drops below altitude 10° 19:20:22 10° 162° (SSE) 1,819 6.3 -16.5°
Sets 19:22:40 0° 156° (SSE) 2,715 7.1 -17.0°
